Harrisburg, PA

1:04 AM EDT on September 22, 2017 (GMT -0400)
Capital City

Weather History for KCXY - October, 2012

Change the Weather History Date:

Wednesday, October 3, 2012

  Actual Average Record
Temperature  
Mean Temperature 68 °F -  
Max Temperature 73 °F 66 °F 88 °F (1919)
Min Temperature 62 °F 47 °F 32 °F (1899)
Cooling Degree Days 2    
Growing Degree Days 18 (Base 50)    
Moisture  
Dew Point 64 °F    
Average Humidity 93    
Maximum Humidity 100    
Minimum Humidity 79    
Precipitation  
Precipitation 0.04 in - - ()
Sea Level Pressure  
Sea Level Pressure 30.04 in    
Wind  
Wind Speed 2 mph (NNW)    
Max Wind Speed 7 mph    
Max Gust Speed -    
Visibility 4 miles    
Events Rain    
Averages and records for this station are not official NWS values.
T = Trace of Precipitation, MM = Missing Value Source: NWS Daily Summary

Daily Weather History Graph

Daily Weather History Graph

Search for Another Location

Airport or City:

Trip Planner

Search our weather history database for the weather conditions in past years. The results will help you decide how hot, cold, wet, or windy it might be!

Date:

Astronomy

Oct. 03, 2012 Rise Set
Actual Time 7:06 AM EDT 6:45 PM EDT
Civil Twilight 6:39 AM EDT 7:12 PM EDT
Nautical Twilight 6:07 AM EDT 7:44 PM EDT
Astronomical Twilight 5:35 AM EDT 8:15 PM EDT
Moon 8:36 PM EDT (10/3) 10:27 AM EDT (10/3)
Length of Visible Light 12h 33m
Length of Day
11h 39m
Waning Gibbous, 89% of the Moon is Illuminated
Oct 3
Waning Gibbous
Oct 8
Last Quarter
Oct 15
New
Oct 21
First Quarter
Oct 29
Full

Hourly Weather History & Observations

Time (EDT) Temp. Dew Point Humidity Pressure Visibility Wind Dir Wind Speed Gust Speed Precip Events Conditions
12:15 AM 62.6 °F 62.6 °F 100% 29.97 in 1.5 mi East 4.6 mph - N/A   Overcast
12:28 AM 62.6 °F 62.6 °F 100% 29.97 in 1.2 mi East 3.5 mph - N/A   Overcast
12:56 AM 62.1 °F 62.1 °F 100% 29.97 in 0.8 mi East 3.5 mph - N/A   Overcast
1:56 AM 63.0 °F 62.1 °F 97% 29.98 in 0.8 mi ENE 3.5 mph - N/A   Overcast
2:51 AM 62.6 °F 62.6 °F 100% 29.98 in 1.0 mi Calm Calm - 0.02 in Rain Rain
2:56 AM 63.0 °F 62.1 °F 97% 29.98 in 1.0 mi Calm Calm - 0.03 in Rain Light Rain
3:05 AM 62.6 °F 62.6 °F 100% 29.98 in 2.0 mi Calm Calm - 0.00 in Rain Light Rain
3:11 AM 62.6 °F 62.6 °F 100% 29.98 in 3.0 mi Calm Calm - 0.00 in Rain Light Rain
3:29 AM 62.6 °F 62.6 °F 100% 29.99 in 5.0 mi Calm Calm - 0.00 in   Overcast
3:56 AM 63.0 °F 62.1 °F 97% 29.99 in 5.0 mi Calm Calm - 0.00 in   Overcast
4:56 AM 63.0 °F 62.1 °F 97% 30.00 in 3.0 mi Calm Calm - 0.00 in Rain Light Rain
5:15 AM 62.6 °F 62.6 °F 100% 30.00 in 2.5 mi Calm Calm - 0.00 in   Overcast
5:38 AM 62.6 °F 62.6 °F 100% 30.01 in 3.0 mi Calm Calm - 0.00 in   Overcast
5:56 AM 63.0 °F 63.0 °F 100% 30.02 in 3.0 mi Calm Calm - 0.00 in   Overcast
7:32 AM 64.4 °F 62.6 °F 94% 30.03 in 1.8 mi Calm Calm - N/A   Overcast
7:41 AM 64.4 °F 62.6 °F 94% 30.03 in 1.0 mi Calm Calm - N/A   Overcast
7:56 AM 63.0 °F 63.0 °F 100% 30.04 in 1.0 mi Calm Calm - N/A   Overcast
8:17 AM 64.4 °F 62.6 °F 94% 30.05 in 0.8 mi Calm Calm - N/A   Overcast
8:40 AM 64.4 °F 62.6 °F 94% 30.04 in 1.0 mi Calm Calm - 0.01 in   Overcast
8:56 AM 64.0 °F 63.0 °F 96% 30.06 in 1.5 mi Calm Calm - 0.01 in   Overcast
9:34 AM 64.4 °F 64.4 °F 100% 30.06 in 2.5 mi Calm Calm - N/A   Overcast
9:48 AM 66.2 °F 64.4 °F 94% 30.06 in 3.0 mi Calm Calm - N/A   Overcast
9:56 AM 66.0 °F 64.0 °F 93% 30.06 in 2.0 mi Calm Calm - N/A   Overcast
10:56 AM 68.0 °F 64.9 °F 90% 30.07 in 2.0 mi Calm Calm - N/A   Overcast
10:58 AM 68.0 °F 64.4 °F 88% 30.07 in 4.0 mi Calm Calm - N/A   Overcast
11:11 AM 69.8 °F 66.2 °F 88% 30.07 in 2.5 mi WNW 3.5 mph - N/A   Overcast
11:22 AM 69.8 °F 66.2 °F 88% 30.06 in 3.0 mi West 4.6 mph - N/A   Overcast
11:38 AM 69.8 °F 66.2 °F 88% 30.07 in 4.0 mi West 4.6 mph - N/A   Overcast
11:56 AM 70.0 °F 66.0 °F 87% 30.06 in 4.0 mi WNW 3.5 mph - N/A   Overcast
12:56 PM 70.0 °F 64.9 °F 84% 30.08 in 9.0 mi WNW 6.9 mph - N/A   Overcast
1:56 PM 71.1 °F 66.0 °F 84% 30.06 in 10.0 mi WNW 3.5 mph - N/A   Mostly Cloudy
2:56 PM 72.0 °F 66.0 °F 81% 30.07 in 10.0 mi Calm Calm - N/A   Mostly Cloudy
3:56 PM 73.9 °F 66.9 °F 79% 30.07 in 10.0 mi Calm Calm - N/A   Clear
4:56 PM 73.9 °F 66.9 °F 79% 30.07 in 10.0 mi Calm Calm - N/A   Clear
5:56 PM 73.0 °F 66.9 °F 81% 30.08 in 10.0 mi ESE 3.5 mph - N/A   Clear
6:56 PM 71.1 °F 68.0 °F 90% 30.09 in 10.0 mi Calm Calm - N/A   Clear
7:56 PM 69.1 °F 66.9 °F 93% 30.10 in 9.0 mi Calm Calm - N/A   Clear
8:56 PM 68.0 °F 66.9 °F 96% 30.12 in 5.0 mi Calm Calm - N/A   Clear
9:56 PM 68.0 °F 66.9 °F 96% 30.12 in 7.0 mi Calm Calm - N/A   Clear
10:56 PM 66.9 °F 66.0 °F 97% 30.12 in 5.0 mi Calm Calm - N/A   Clear
11:56 PM 66.9 °F 66.0 °F 97% 30.13 in 5.0 mi Calm Calm - N/A   Clear